Content
SEND FEEDBACK

Daily
Averages
Monthly
Summary
United States of America

ST. LOUIS, MISSOURI


Home > North America > United States > Missouri
Elevation: 163 meters     Latitude: 38 45N     Longitude: 090 22W

WEATHER
 
SELECT A DAY
Number of Records: 196,207;   Date Range: 1/1/95 - 7/7/14
 
SHARE

PRINT THIS DATA

[ ← Previous Day ]
WEATHER ALMANAC - 3 MAY, 2013
[ Next Day → ]
[ °F ]   °C
Weather ElementAverageHighLow
Temperature5.2 °C6.1 °C (1:54 am)3.9 °C (8:54 am)
Dewpoint3.5 °C4.4 °C (1:54 am)2 °C (9:15 am)
Humidity88.9 %93 % (8:54 am)85 % (12:54 pm)
Barometer1013.9 hPa1018.6 hPa (1:54 am)1010.5 hPa (7:02 pm)
Wind Speed13 km/h18.5 km/h (5:14 am)
Wind Gust25.9 km/h (9:54 am)
Weather ElementAverage
Visibility9.2 km
Wind DirectionWNW (287.5 °)

Weather ElementTotal
Precipitation95.76 mm
Heating Degree Days13.3 (Base 18.3)
Averaged from 52 records on 3 May, 2013
WEATHER CONDITIONS BREAKOUT
WIND DIRECTION BREAKOUT
WEATHER BY HOUR - 3 MAY, 2013
[ °F ]   °C
Local TimeTemperatureDewpointHumidityBarometerVisibilityWind DirectionWind SpeedGust SpeedPrecipitationEventsConditions
1:54 AM6.1 °C4.4 °C89 %1018.6 hPa6.4 kmWNW (300°)14.8 km/h3.3 mmRainRain
2:15 AM6 °C4 °C87 %1017.6 hPa6.4 kmNNW (330°)16.7 km/h1.27 mmRainRain
2:31 AM6 °C4 °C87 %1017.9 hPa9.7 kmNW (320°)14.8 km/h2.03 mmRainRain
2:54 AM5.6 °C3.9 °C89 %1017.6 hPa11.3 kmNW (310°)11.1 km/h3.56 mmRainLight Rain
3:11 AM6 °C4 °C87 %1017.6 hPa16.1 kmWest (270°)9.3 km/h0.25 mmRainLight Rain
3:21 AM6 °C4 °C87 %1017.6 hPa16.1 kmWest (280°)13 km/h0.25 mmRainLight Rain
3:54 AM5.6 °C3.9 °C89 %1017.3 hPa16.1 kmWNW (290°)14.8 km/h0.51 mmRainLight Rain
4:17 AM6 °C4 °C87 %1017.3 hPa12.9 kmWNW (290°)14.8 km/h0.51 mmRainLight Rain
4:54 AM5 °C3.3 °C89 %1016.9 hPa8 kmWNW (300°)13 km/h2.03 mmRainLight Rain
5:14 AM5 °C3 °C87 %1016.6 hPa16.1 kmNW (310°)18.5 km/h0 mmRainLight Rain
5:23 AM5 °C3 °C87 %1016.3 hPa16.1 kmNW (310°)13 km/h0 mmRainLight Rain
5:32 AM5 °C3 °C87 %1016.3 hPa16.1 kmWNW (300°)16.7 km/h0 mmRainLight Rain
5:54 AM5 °C3.3 °C89 %1016.6 hPa8 kmWest (280°)13 km/h0.25 mmRainLight Rain
6:54 AM4.4 °C2.8 °C89 %1016.3 hPa16.1 kmNW (310°)16.7 km/h0.25 mmRainLight Rain
7:54 AM4.4 °C2.8 °C89 %1015.9 hPa4 kmWNW (300°)14.8 km/h3.81 mmRainHeavy Rain
8:54 AM3.9 °C2.8 °C93 %1016.3 hPa4 kmWest (270°)16.7 km/h4.83 mmRainRain
9:08 AM4 °C3 °C93 %1015.6 hPa4 kmWest (280°)16.7 km/h1.27 mmRainHeavy Rain
9:15 AM4 °C2 °C87 %1015.9 hPa4 kmWest (270°)18.5 km/h1.78 mmRainRain
9:51 AM4 °C2 °C87 %1014.9 hPa4 kmNW (310°)16.7 km/h4.57 mmRainRain
9:54 AM3.9 °C2.2 °C89 %1015.6 hPa4 kmWNW (300°)11.1 km/h25.9 km/h4.57 mmRainLight Rain
10:06 AM4 °C3 °C93 %1014.9 hPa6.4 kmNW (310°)11.1 km/h0.25 mmRainLight Rain
10:51 AM4 °C3 °C93 %1014.2 hPa4 kmNW (320°)16.7 km/h2.03 mmRainRain
10:54 AM4.4 °C2.8 °C89 %1014.9 hPa4 kmNW (320°)11.1 km/h2.29 mmRainRain
11:54 AM5 °C3.3 °C89 %1014.6 hPa4 kmNW (310°)11.1 km/h3.81 mmRainRain
12:01 PM5 °C3 °C87 %1013.9 hPa6.4 kmWNW (300°)13 km/h0.51 mmRainRain
12:20 PM5 °C3 °C87 %1013.5 hPa6.4 kmNNW (330°)13 km/h1.52 mmRainRain
12:54 PM5.6 °C3.3 °C85 %1013.2 hPa6.4 kmNNW (330°)11.1 km/h3.3 mmRainRain
1:10 PM6 °C4 °C87 %1013.2 hPa4.8 kmWNW (300°)11.1 km/h1.27 mmRainRain
1:52 PM6 °C4 °C87 %1012.5 hPa4 kmWNW (290°)11.1 km/h4.57 mmRainRain
1:54 PM5.6 °C3.9 °C89 %1012.9 hPa4 kmWNW (290°)11.1 km/h4.57 mmRainRain
2:51 PM6 °C4 °C87 %1012.2 hPa4 kmWNW (300°)13 km/h4.06 mmRainLight Rain
2:54 PM5.6 °C3.9 °C89 %1012.5 hPa4 kmWNW (300°)11.1 km/h4.06 mmRainLight Rain
2:59 PM6 °C4 °C87 %1011.9 hPa9.7 kmNW (320°)9.3 km/h0.25 mmRainLight Rain
3:22 PM6 °C4 °C87 %1011.5 hPa11.3 kmWNW (300°)16.7 km/h1.02 mmRainLight Rain
3:40 PM6 °C4 °C87 %1011.5 hPa12.9 kmWNW (290°)13 km/h1.52 mmRainLight Rain
3:54 PM5.6 °C3.9 °C89 %1011.9 hPa14.5 kmWNW (290°)18.5 km/h1.78 mmRainLight Rain
4:54 PM5.6 °C3.9 °C89 %1011.5 hPa12.9 kmWest (280°)11.1 km/h1.78 mmRainLight Rain
5:54 PM5.6 °C3.9 °C89 %1011.5 hPa6.4 kmWest (280°)9.3 km/h3.56 mmRainRain
6:10 PM6 °C4 °C87 %1011.2 hPa4.8 kmWest (270°)16.7 km/h1.27 mmRainRain
6:20 PM6 °C4 °C87 %1010.8 hPa4.8 kmWNW (290°)13 km/h2.03 mmRainRain
6:54 PM5 °C3.9 °C93 %1011.2 hPa6.4 kmWNW (290°)11.1 km/h4.32 mmRainRain
7:02 PM6 °C4 °C87 %1010.5 hPa6.4 kmWNW (300°)14.8 km/h0.51 mmRainRain
7:54 PM5 °C3.9 °C93 %1011.5 hPa8 kmWest (260°)7.4 km/h2.79 mmRainRain
8:35 PM5 °C4 °C93 %1010.5 hPa9.7 kmWest (260°)9.3 km/h2.03 mmRainRain
8:40 PM5 °C4 °C93 %1010.5 hPa9.7 kmWest (260°)11.1 km/h2.29 mmRainLight Rain
8:54 PM5 °C3.9 °C93 %1010.8 hPa11.3 kmWest (260°)11.1 km/h2.79 mmRainLight Rain
9:54 PM5.6 °C3.9 °C89 %1011.5 hPa14.5 kmSW (230°)11.1 km/h0.25 mmRainLight Rain
10:54 PM5 °C3.9 °C93 %1011.2 hPa16.1 kmWSW (240°)11.1 km/h0.25 mmRainLight Rain
11:03 PM5 °C4 °C93 %1010.8 hPa9.7 kmWSW (240°)16.7 km/h0 mmOvercast
11:37 PM5 °C3 °C87 %1010.8 hPa16.1 kmSW (220°)11.1 km/h0 mmOvercast
11:52 PM5 °C3 °C87 %1010.8 hPa16.1 kmSW (220°)9.3 km/h0 mmOvercast
11:54 PM5 °C3.3 °C89 %1011.5 hPa16.1 kmSW (220°)9.3 km/h0 mmOvercast
Hourly data recorded from KSUS, located 0 kilometers away from St. Louis, Missouri







STORIES FROM OUR PARTNERS